Stations météo

réclame
Mon MeteoGroup
Menorca/Mahon, Espagne (8314): Température de l'air & dewpoint: 20.04.2018 11:00:00 - 26.04.2018 11:00:00 (CEST)Menorca/Mahon, Espagne (8314): Vitesse du vent: 20.04.2018 11:00:00 - 26.04.2018 11:00:00 (CEST)Menorca/Mahon, Espagne (8314): Direction du vent: 20.04.2018 11:00:00 - 26.04.2018 11:00:00 (CEST)Menorca/Mahon, Espagne (8314): reduced air pressure: 20.04.2018 11:00:00 - 26.04.2018 11:00:00 (CEST)Menorca/Mahon, Espagne (8314): visibility: 20.04.2018 11:00:00 - 26.04.2018 11:00:00 (CEST)
Date & Time tt [°C] td [°C] ff [km/h] ff [knt] dd ppp [hPa] vv [km]
26.04.2018 11:00:00 18,3 10,3 48 26 NNE 1015,9 18
26.04.2018 10:00:00 16,6 10,9 44 24 NNE 1016,3 -
26.04.2018 09:00:00 16,9 11,6 37 20 NNE 1016,6 18
26.04.2018 08:00:00 16,7 11,8 35 19 NNE 1016,3 18
26.04.2018 07:00:00 16,5 11,8 34 18 NE 1016,0 -
26.04.2018 06:00:00 16,5 12,3 37 20 NE 1015,8 -
26.04.2018 05:00:00 16,6 13,5 34 18 NE 1015,7 -
26.04.2018 04:00:00 16,6 14,8 21 11 ENE 1016,4 -
26.04.2018 03:00:00 17,1 14,8 31 17 NE 1016,3 -
26.04.2018 02:00:00 17,2 15,2 22 12 NE 1016,5 -
26.04.2018 01:00:00 16,8 15,5 18 10 NE 1016,7 -
26.04.2018 00:00:00 16,7 14,8 15 8 NE 1017,0 -
25.04.2018 23:00:00 17,2 14,3 21 11 NNE 1016,4 20
25.04.2018 22:00:00 17,5 14,2 16 9 NE 1016,0 -
25.04.2018 21:00:00 17,8 14,9 13 7 ENE 1015,9 -
25.04.2018 20:00:00 18,4 14,7 13 7 ENE 1015,5 20
25.04.2018 19:00:00 19,0 15,3 18 10 NE 1016,0 -
25.04.2018 18:00:00 19,5 15,6 15 8 ENE 1015,8 -
25.04.2018 17:00:00 19,9 15,3 24 13 NE 1015,8 25
25.04.2018 16:00:00 22,0 13,4 22 12 ENE 1016,2 -
25.04.2018 15:00:00 22,9 12,2 16 9 ENE 1016,7 25
25.04.2018 14:00:00 23,2 12,4 21 11 E 1017,4 25
25.04.2018 13:00:00 22,8 12,7 18 10 ESE 1017,8 -
25.04.2018 12:00:00 23,1 13,7 18 10 E 1017,8 -
25.04.2018 11:00:00 21,2 13,6 24 13 ENE 1017,3 28
25.04.2018 10:00:00 19,6 13,6 28 15 NE 1016,6 -
25.04.2018 09:00:00 17,9 14,4 22 12 NE 1016,5 28
25.04.2018 08:00:00 16,4 13,3 15 8 NE 1016,4 28
25.04.2018 07:00:00 15,6 12,7 16 9 NE 1015,9 -
25.04.2018 06:00:00 14,8 12,9 13 7 NE 1016,2 -
25.04.2018 05:00:00 14,6 12,6 18 10 NNE 1015,9 -
25.04.2018 04:00:00 14,1 12,0 15 8 NNE 1016,5 -
25.04.2018 03:00:00 14,9 12,4 15 8 NNE 1016,6 -
25.04.2018 02:00:00 15,4 12,0 11 6 NE 1017,2 -
25.04.2018 01:00:00 15,5 11,3 13 7 ENE 1017,4 -
25.04.2018 00:00:00 15,8 12,2 13 7 ENE 1017,4 -
24.04.2018 23:00:00 16,3 11,8 15 8 ENE 1017,3 25
24.04.2018 22:00:00 16,8 12,7 16 9 ENE 1017,1 -
24.04.2018 21:00:00 17,2 13,3 15 8 E 1017,0 -
24.04.2018 20:00:00 18,5 13,4 18 10 E 1016,8 25
24.04.2018 19:00:00 19,8 11,0 18 10 ENE 1017,1 -
24.04.2018 18:00:00 21,1 10,1 22 12 ENE 1017,3 -
24.04.2018 17:00:00 23,3 8,3 22 12 ENE 1017,5 25
24.04.2018 16:00:00 22,2 7,9 18 10 NE 1018,6 -
24.04.2018 15:00:00 24,9 6,0 15 8 ENE 1019,0 28
24.04.2018 14:00:00 24,9 6,5 15 8 ENE 1019,2 30
24.04.2018 13:00:00 24,4 9,7 13 7 ENE 1019,4 -
24.04.2018 12:00:00 24,2 8,9 16 9 E 1019,2 -
24.04.2018 11:00:00 23,5 7,6 18 10 E 1019,2 26
24.04.2018 10:00:00 22,1 10,3 13 7 E 1019,0 -
24.04.2018 09:00:00 19,4 13,4 9 5 E 1018,7 22
24.04.2018 08:00:00 16,4 14,2 11 6 ENE 1018,8 20
24.04.2018 07:00:00 15,2 13,9 13 7 NE 1018,4 -
24.04.2018 06:00:00 14,7 13,4 15 8 NE 1017,8 -
24.04.2018 05:00:00 15,1 13,5 13 7 NE 1017,9 -
24.04.2018 04:00:00 14,4 12,3 13 7 E 1018,0 -
24.04.2018 03:00:00 15,1 11,7 15 8 ENE 1018,4 -
24.04.2018 02:00:00 15,6 12,9 15 8 NE 1018,9 -
24.04.2018 01:00:00 16,0 13,8 16 9 NE 1019,4 -
24.04.2018 00:00:00 16,4 14,9 15 8 NE 1019,7 -
23.04.2018 23:00:00 16,6 14,8 18 10 NE 1019,8 12
23.04.2018 22:00:00 16,9 14,0 18 10 NE 1019,6 -
23.04.2018 21:00:00 17,3 13,6 13 7 NE 1018,7 -
23.04.2018 20:00:00 18,7 13,0 13 7 ENE 1018,3 20
23.04.2018 19:00:00 20,8 12,3 16 9 E 1018,1 -
23.04.2018 18:00:00 22,6 11,5 16 9 ESE 1018,2 -
23.04.2018 17:00:00 24,0 10,8 15 8 E 1018,4 20
23.04.2018 16:00:00 24,3 12,1 16 9 ESE 1018,8 -
23.04.2018 15:00:00 24,1 11,5 16 9 ESE 1019,3 20
23.04.2018 14:00:00 23,6 12,3 15 8 E 1019,5 20
23.04.2018 13:00:00 23,2 12,0 16 9 ESE 1019,9 -
23.04.2018 12:00:00 23,2 11,8 15 8 E 1019,8 -
23.04.2018 11:00:00 21,8 12,2 13 7 E 1019,9 20
23.04.2018 10:00:00 20,3 12,7 11 6 ESE 1019,5 -
23.04.2018 09:00:00 18,1 15,3 9 5 E 1019,1 14
23.04.2018 08:00:00 15,9 14,8 11 6 ENE 1018,6 14
23.04.2018 07:00:00 14,4 13,9 13 7 ENE 1018,1 -
23.04.2018 06:00:00 14,5 13,9 11 6 ENE 1018,2 -
23.04.2018 05:00:00 14,5 13,9 8 4 ENE 1018,6 -
23.04.2018 04:00:00 14,6 14,0 8 4 ENE 1018,6 -
23.04.2018 03:00:00 14,5 13,7 8 4 E 1018,7 -
23.04.2018 02:00:00 14,8 14,0 9 5 E 1019,1 -
23.04.2018 01:00:00 15,3 14,3 11 6 ENE 1019,3 -
23.04.2018 00:00:00 15,3 14,3 11 6 ENE 1019,2 -
22.04.2018 23:00:00 15,5 14,0 9 5 E 1019,3 17
22.04.2018 22:00:00 16,0 14,0 8 4 E 1018,9 -
22.04.2018 21:00:00 16,6 13,5 13 7 E 1018,2 -
22.04.2018 20:00:00 18,7 12,0 8 4 E 1018,1 22
22.04.2018 19:00:00 21,7 10,9 11 6 ESE 1018,0 -
22.04.2018 18:00:00 23,1 10,4 13 7 E 1017,9 -
22.04.2018 17:00:00 24,1 9,8 9 5 ESE 1018,0 25
22.04.2018 16:00:00 24,8 10,6 9 5 SE 1018,3 -
22.04.2018 15:00:00 24,5 9,9 8 4 ESE 1018,6 20
22.04.2018 14:00:00 21,9 9,8 8 4 S 1019,3 20
22.04.2018 13:00:00 22,3 10,4 15 8 SSW 1019,3 -
22.04.2018 12:00:00 23,5 10,4 5 3 SE 1019,2 -
22.04.2018 11:00:00 22,0 11,9 8 4 SE 1019,2 20
22.04.2018 10:00:00 20,3 13,2 8 4 ESE 1018,8 -
22.04.2018 09:00:00 16,8 14,6 8 4 ENE 1018,7 18
22.04.2018 08:00:00 15,7 13,9 4 2 E 1018,6 20
22.04.2018 07:00:00 11,6 10,5 5 3 ENE 1018,5 -
22.04.2018 06:00:00 11,6 10,8 0 0 N 1018,5 -
22.04.2018 05:00:00 13,0 12,5 0 0 N 1018,5 -
22.04.2018 04:00:00 11,5 10,3 0 0 N 1018,9 -
22.04.2018 03:00:00 12,4 11,0 0 0 N 1019,0 -
22.04.2018 02:00:00 14,5 13,5 5 3 ESE 1019,5 -
22.04.2018 01:00:00 14,6 13,5 8 4 E 1019,9 -
22.04.2018 00:00:00 14,4 13,6 4 2 E 1020,2 -
21.04.2018 23:00:00 14,0 12,3 4 2 E 1020,3 15
21.04.2018 22:00:00 15,5 13,2 0 0 N 1020,1 -
21.04.2018 21:00:00 16,2 13,3 11 6 NE 1019,4 -
21.04.2018 20:00:00 18,0 12,5 13 7 ENE 1018,9 24
21.04.2018 19:00:00 20,3 11,4 11 6 ENE 1019,1 -
21.04.2018 18:00:00 22,1 11,4 4 2 E 1019,3 -
21.04.2018 17:00:00 21,6 13,4 9 5 WSW 1019,4 25
21.04.2018 16:00:00 22,5 12,9 11 6 W 1019,7 -
21.04.2018 15:00:00 23,9 8,7 11 6 ENE 1020,0 22
21.04.2018 14:00:00 23,6 8,8 11 6 ENE 1020,2 25
21.04.2018 13:00:00 23,1 7,8 11 6 ENE 1020,6 -
21.04.2018 12:00:00 22,9 8,8 9 5 ENE 1020,8 -
21.04.2018 11:00:00 21,0 9,6 13 7 NE 1020,7 22
21.04.2018 10:00:00 18,5 13,3 15 8 NE 1020,7 -
21.04.2018 09:00:00 15,5 15,0 13 7 NE 1020,7 0,9
21.04.2018 08:00:00 14,3 13,8 18 10 NNE 1020,8 2,0
21.04.2018 07:00:00 11,8 11,3 13 7 NNE 1020,4 -
21.04.2018 06:00:00 10,9 10,3 8 4 N 1020,4 -
21.04.2018 05:00:00 12,0 11,2 8 4 N 1020,4 -
21.04.2018 04:00:00 12,4 11,6 11 6 NNE 1020,5 -
21.04.2018 03:00:00 12,7 12,1 9 5 NE 1021,0 -
21.04.2018 02:00:00 12,8 12,0 9 5 NNE 1021,2 -
21.04.2018 01:00:00 14,5 13,4 15 8 NE 1021,4 -
21.04.2018 00:00:00 14,5 13,0 11 6 NE 1021,8 -
20.04.2018 23:00:00 14,7 12,3 16 9 NNE 1021,7 20
20.04.2018 22:00:00 15,1 12,4 15 8 NNE 1021,7 -
20.04.2018 21:00:00 16,0 12,2 18 10 NNE 1021,2 -
20.04.2018 20:00:00 17,6 10,9 18 10 NNE 1021,1 22
20.04.2018 19:00:00 20,1 10,0 15 8 NE 1021,0 -
20.04.2018 18:00:00 21,4 9,4 16 9 ENE 1021,1 -
20.04.2018 17:00:00 22,2 10,9 16 9 E 1021,5 22
20.04.2018 16:00:00 22,6 9,5 16 9 E 1022,0 -
20.04.2018 15:00:00 22,2 8,6 22 12 ENE 1022,2 25
20.04.2018 14:00:00 22,2 9,4 21 11 ENE 1022,9 25
20.04.2018 13:00:00 - - - - - - -
20.04.2018 12:00:00 20,9 10,1 - - - - -
20.04.2018 11:00:00 20,5 11,6 22 12 ENE 1023,0 25

tt = Température de l'air
td = dewpoint
ff = Vitesse du vent
dd = Direction du vent
ppp = reduced air pressure
vv = visibility

stations d'obs. à proximité